sat.trackr.live / text

‹ back to catalog

STARLINK-3209

NORAD 49752 · 2021-115AE

PAYLOAD ACTIVE UNKNOWN

§ Identity

Operator
Country
US
Launch date
2021-12-02
Launch site
AFETR
Launch vehicle
Mass (kg)
RCS (m²)

Purposes: comms

External: N2YO · Heavens-Above · Gunter

§ Orbital elements

Epoch: 2026-09-08T18:45:11.649312Z

Period
93.85 min
Inclination
53.1620°
Eccentricity
0.0001048
Mean motion
15.34393221 rev/d
Perigee alt
462.0 km
Apogee alt
463.4 km
Semi-major
6,840.9 km
B*
2.9939e-5
RAAN
24.1641°
Arg perigee
79.7154°
Mean anomaly
280.3967°
Rev number
26,349

§ Raw data

STARLINK-32091 49752U 21115AE  26251.78138483  .00000635  00000+0  29939-4 0  99942 49752  53.1620  24.1641 0001048  79.7154 280.3967 15.34393221263492

JSON: /api/v1/satellites/49752 · /tle

For live sub-satellite position, see the globe view (requires WebGL).

§ Visibility from observer

Set your observer location to see the next 7 days of passes ≥ 10°. The values pass through the URL so the page stays shareable.

No JS? Fill the form by hand. The geolocation button needs JavaScript.